Location: New Frontier Mobile Home Park
(32.8448°N, 116.9675°W)
Time: 22:33:06
(UTC+00:00)

Cosmos 2237 Rocket - Pass Details

Date: 14 July 2020
Orbit: 834 x 850 km, 71.0° (Epoch: 05 August)

Event Time Altitude Azimuth Distance (km) Brightness Sun altitude
Rises 04:37:11 0° 208° (SSW) 3,393 5.2 -18.1°
Reaches altitude 10° 04:39:39 10° 211° (SSW) 2,463 4.5 -18.5°
Maximum altitude 04:45:15 63° 292° (WNW) 947 2.7 -19.4°
Drops below altitude 10° 04:50:54 10° 13° (NNE) 2,480 5.0 -20.2°
Sets 04:53:24 0° 17° (NNE) 3,419 5.7 -20.6°
